sat.trackr.live / text

‹ back to catalog

STARLINK-34667

NORAD 64815 · 2025-150AB

PAYLOAD ACTIVE UNKNOWN

§ Identity

Operator
Country
US
Launch date
2025-07-16
Launch site
AFWTR
Launch vehicle
Mass (kg)
RCS (m²)

Purposes: comms

External: N2YO · Heavens-Above · Gunter

§ Orbital elements

Epoch: 2026-05-25T04:15:33.522048Z

Period
96.11 min
Inclination
70.0002°
Eccentricity
0.0002544
Mean motion
14.98336581 rev/d
Perigee alt
570.3 km
Apogee alt
573.8 km
Semi-major
6,950.2 km
B*
2.6610e-4
RAAN
301.6064°
Arg perigee
270.3220°
Mean anomaly
89.7648°
Rev number
4,797

§ Raw data

STARLINK-346671 64815U 25150AB  26145.17747132  .00003084  00000+0  26610-3 0  99992 64815  70.0002 301.6064 0002544 270.3220  89.7648 14.98336581 47973

JSON: /api/v1/satellites/64815 · /tle

For live sub-satellite position, see the globe view (requires WebGL).

§ Visibility from observer

Set your observer location to see the next 7 days of passes ≥ 10°. The values pass through the URL so the page stays shareable.

No JS? Fill the form by hand. The geolocation button needs JavaScript.